Temp_Advection
nan nan nan nan nan nan nan nan nan nan nan nan nan nan nan nan nan nan nan nan nan nan nan nan nan nan nan nan nan nan nan nan nan nan nan nan nan nan nan nan nan nan nan
nan -0 0 0 0 -0 -0 -0 -0 -0 -0 -0 0 0 0 0 0 0 -0 0 0 0 0 0 0 0 0 0 0 -0 -1 -0 0 0 -0 -0 -0 -0 0 -1 -1 1 nan
nan -0 0 0 0 0 0 -0 -0 -0 -0 -0 -0 0 0 0 0 0 -0 0 0 0 0 0 -0 0 0 0 -0 -0 -0 0 -0 -0 -0 -0 0 -0 -0 -1 -0 0 nan
nan -0 0 0 0 0 0 0 0 -0 0 0 -0 -0 0 0 0 0 0 0 0 0 0 0 0 0 0 0 -0 -0 -0 -0 -0 -0 -1 -1 -0 -0 -0 0 0 0 nan
nan -0 0 0 0 0 0 0 0 -0 0 0 0 -0 -0 0 -0 -0 -0 -0 0 0 -0 0 0 0 0 0 -0 -0 -0 -0 -0 -0 -1 -1 -0 -0 1 1 -1 -0 nan
nan 0 0 0 0 0 0 0 0 -0 -0 -0 -0 -0 -0 -0 -0 0 -0 -0 -0 0 0 0 0 0 0 0 -0 -0 -0 -0 -0 -0 -1 -0 0 -0 0 1 1 0 nan
nan 1 0 0 0 0 0 0 0 -0 -0 -0 -0 -0 0 -0 -0 0 0 -0 -0 0 0 0 0 0 0 0 0 0 -0 -0 -0 -0 -0 -0 0 0 1 1 0 -0 nan
nan 0 0 0 0 0 0 -0 0 0 0 0 -0 -0 0 -0 -0 0 0 0 0 -0 -0 -0 0 0 0 0 0 0 -0 -0 -0 -0 -0 -0 0 0 0 1 0 0 nan
nan -0 0 0 0 0 0 0 0 0 0 -0 -0 -0 -0 -0 -0 -0 0 1 0 0 -0 0 -0 0 0 0 0 0 0 -0 -0 -0 -0 -0 -0 -0 0 0 0 1 nan
nan 0 0 0 0 0 0 0 0 0 0 -0 -0 -0 -0 -0 -0 -0 0 1 0 0 0 0 -0 0 0 0 0 0 0 -0 -0 -0 -0 -0 -0 -0 0 0 0 0 nan
nan -0 0 0 0 0 0 0 0 0 0 0 -0 -0 -0 -0 -0 -0 0 0 0 0 0 0 -0 -0 0 0 0 -0 -0 0 -0 -0 -0 -0 -0 0 -0 0 -0 0 nan
nan -0 -0 -0 0 0 0 0 0 0 0 0 0 -0 -0 -0 -0 -1 -0 1 0 0 -0 0 0 0 0 0 0 0 -0 -0 -0 -0 -0 -0 0 0 -0 -0 -0 0 nan
nan 0 0 -0 0 0 0 0 -0 -0 0 0 0 0 -0 -0 -0 -0 -1 0 1 0 0 0 0 0 0 0 0 -0 -0 -0 -0 -0 0 0 -0 -0 -0 -0 -0 0 nan
nan 0 0 -0 -0 -0 0 0 -0 -0 -0 0 0 0 -0 -0 -0 -0 -1 -1 0 0 0 0 0 0 0 0 -0 -0 -0 -0 -0 -0 0 0 -0 -0 -0 -0 -0 -0 nan
nan -0 -0 0 -0 -0 -0 -0 -0 -0 -0 0 0 0 0 -0 -0 -0 -0 -1 -0 0 -0 -0 0 0 -0 -0 -0 -0 -0 -0 -0 0 0 -0 -0 -0 -0 -0 -0 -0 nan
nan -0 -0 1 0 -0 -0 -0 -0 -0 -0 -0 0 0 0 0 0 -0 -0 -0 -0 -0 -0 -0 0 0 0 -0 -0 -0 -0 -0 -0 0 -0 0 0 0 -0 -0 -0 0 nan
nan 0 -0 0 0 0 0 0 0 0 -0 -0 0 0 0 0 0 0 -0 -0 -0 -0 -0 0 0 0 0 -0 -0 -0 -0 -0 -0 -0 0 0 0 0 -0 -0 -0 -0 nan
nan 0 1 -0 0 0 0 0 0 0 0 -0 0 0 0 0 0 0 -0 -0 -1 -0 -0 -0 -0 -0 0 -0 -0 -0 -0 -0 -0 -0 0 0 0 0 -0 0 -0 -0 nan
nan -0 -0 -0 0 0 0 0 0 0 0 0 0 0 0 0 0 0 0 -0 -0 -0 -1 -0 -0 -0 -0 -0 -0 -0 -0 -0 0 0 -0 -0 -0 0 -0 0 0 -0 nan
nan -0 -0 0 -0 -0 -0 -0 0 0 0 0 0 0 -0 -0 -0 0 0 0 -0 -0 -0 -0 -0 -0 -0 -0 -0 -0 -0 -0 0 0 0 0 0 0 0 0 0 0 nan
nan 1 1 0 0 0 0 0 0 -0 0 -0 -0 0 -0 -0 -0 -0 0 0 0 -0 -0 -0 -0 -0 -0 -0 -0 -0 -0 -0 0 0 0 0 0 0 1 0 0 0 nan
nan 1 1 1 0 0 0 0 -0 -0 0 0 0 0 0 -0 0 -0 -0 0 0 0 -0 -0 -0 -0 -0 -0 -0 -0 -0 -0 -0 0 0 0 0 0 0 0 0 0 nan
nan 1 1 1 0 0 0 0 0 0 0 0 0 -0 -0 -0 -0 -0 -0 -0 -0 -0 -0 -0 0 0 0 -0 -0 -0 -0 -0 -0 0 0 0 0 0 0 0 0 0 nan
nan 1 1 1 0 0 0 0 0 0 0 0 -0 -0 0 0 -0 -0 -0 0 -0 0 0 0 0 0 0 0 -0 -0 -0 0 -0 -0 -0 0 0 0 0 0 0 0 nan
nan 1 1 1 1 0 0 0 0 0 0 -0 0 0 0 0 0 0 0 0 0 0 0 0 0 0 -0 0 -0 -0 0 0 0 0 -0 -0 -0 0 0 0 0 0 nan
nan nan nan nan nan nan nan nan nan nan nan nan nan nan nan nan nan nan nan nan nan nan nan nan nan nan nan nan nan nan nan nan nan nan nan nan nan nan nan nan nan nan nan
Wind_Speed
30 28 25 24 23 22 22 20 18 18 17 14 13 12 10 10 13 15 17 19 18 22 19 19 23 24 21 21 21 19 21 25 25 24 23 22 21 21 16 19 23 25 25
36 30 26 24 24 22 21 20 17 16 14 13 13 11 12 15 19 18 21 21 20 19 17 18 19 20 21 20 19 17 23 22 22 20 19 18 14 14 14 20 23 24 26
36 32 28 26 24 22 20 18 17 16 16 16 15 14 13 16 22 20 17 19 20 17 14 17 20 19 18 17 19 23 21 21 19 17 17 15 11 11 12 19 21 21 22
36 33 30 27 24 21 19 18 17 19 20 20 17 14 14 15 25 22 19 18 19 20 17 16 16 18 17 17 21 20 20 18 15 13 14 19 19 19 18 18 20 21 21
37 35 31 27 23 20 19 19 20 22 23 21 18 13 20 16 21 21 19 17 18 20 17 17 17 16 17 18 19 17 16 13 12 11 13 20 20 17 21 26 25 19 21
38 35 31 27 23 21 20 20 21 22 22 20 17 18 19 14 18 18 12 14 23 20 21 22 21 18 19 21 20 17 14 12 10 11 12 19 20 20 22 27 25 24 25
38 35 31 27 24 23 21 22 22 21 19 16 14 23 21 16 15 16 22 27 27 24 24 23 23 21 23 21 20 17 14 11 11 13 13 18 18 18 18 25 22 19 18
36 34 31 28 25 24 22 21 21 20 18 16 17 23 22 19 19 17 17 25 25 23 22 22 20 18 21 20 19 15 13 9 8 11 13 16 19 16 17 20 19 17 15
36 34 31 29 26 25 23 22 22 20 18 15 16 20 21 21 21 17 18 24 25 22 22 19 16 17 17 18 16 15 13 8 6 11 14 17 15 17 17 17 16 18 15
35 34 32 30 28 27 24 23 22 21 18 16 15 20 20 20 21 17 20 25 25 21 19 18 17 16 17 16 12 12 11 5 5 10 14 13 15 17 14 14 12 17 17
35 34 33 31 29 29 26 23 21 21 18 17 16 19 20 19 18 16 18 23 24 23 19 16 14 15 17 15 10 9 7 2 3 8 14 11 13 13 15 14 12 14 18
39 37 34 33 31 30 28 25 23 23 20 17 16 18 18 17 17 19 20 22 21 20 17 16 15 15 14 14 13 9 6 3 2 5 11 9 11 12 14 15 14 14 20
41 39 37 35 33 32 30 28 25 24 21 18 15 15 16 17 17 16 24 20 21 18 18 17 18 16 13 12 12 12 12 8 7 7 13 12 13 13 13 14 13 13 17
42 40 37 36 34 32 31 29 26 24 23 19 15 13 13 16 17 15 19 19 16 20 20 18 17 13 12 11 11 13 13 12 11 12 13 9 12 10 12 13 15 14 13
42 40 39 37 35 33 31 30 26 24 23 20 16 13 11 14 15 15 18 17 18 19 18 14 17 14 13 11 10 11 13 12 12 13 12 10 9 12 13 13 11 10 11
42 41 39 38 36 33 32 30 26 24 24 21 17 14 13 12 13 14 17 15 18 16 20 14 15 12 12 10 9 9 11 11 9 8 11 8 10 10 8 8 8 9 9
43 41 39 37 35 33 31 28 26 24 24 22 19 17 14 13 12 13 15 16 17 16 19 16 15 11 9 10 8 8 11 9 9 11 10 9 8 6 8 8 9 9 9
43 41 37 36 33 31 30 27 26 24 24 23 21 19 17 13 12 11 13 15 17 15 18 19 15 13 10 8 9 9 9 8 6 8 9 6 7 5 4 4 4 6 10
41 40 37 34 32 30 27 26 24 23 23 23 23 21 20 16 13 11 12 14 16 15 18 20 15 12 13 9 9 8 5 6 9 10 6 4 4 3 1 1 6 6 5
37 34 34 33 30 28 25 24 24 23 23 24 24 22 21 19 16 12 11 11 16 17 17 18 15 12 13 10 9 7 4 3 4 5 9 11 11 5 1 3 3 4 4
37 34 34 33 32 32 31 30 28 27 26 23 25 23 21 21 18 17 13 13 13 17 18 18 17 13 14 13 11 8 5 3 3 4 7 8 10 11 13 7 6 4 5
38 36 35 34 33 33 32 31 29 27 25 24 23 24 22 22 21 18 16 13 13 14 17 17 15 14 14 14 12 9 5 7 9 9 8 8 8 10 11 11 9 8 6
38 38 38 35 33 31 29 29 28 28 26 24 24 24 24 21 20 18 17 15 14 14 15 16 15 15 13 14 14 8 5 5 2 3 6 7 9 11 11 11 9 9 8
32 34 35 36 34 32 28 27 25 30 27 25 22 20 21 22 23 22 20 19 18 16 16 13 15 18 16 14 16 14 13 11 4 3 4 9 9 10 11 12 12 11 9
28 30 32 33 31 30 26 25 24 23 24 21 20 19 19 21 20 22 22 22 23 25 19 18 17 18 18 18 15 14 16 18 17 14 14 11 12 12 11 12 13 13 13
23 26 28 30 30 32 30 27 26 25 25 24 23 23 21 20 18 18 20 22 22 20 21 21 21 23 21 21 17 18 18 17 16 16 16 16 16 14 16 14 12 12 12
Wind_Direction
171 166 168 167 165 166 166 163 160 151 154 155 151 153 147 139 127 130 118 108 112 121 115 119 115 115 110 100 89 81 94 96 95 99 99 98 92 91 93 101 96 83 73
163 165 166 163 160 162 166 170 169 165 159 149 147 141 143 134 119 113 122 124 122 134 123 129 119 116 108 97 86 84 104 99 102 99 97 95 83 79 67 86 81 88 84
163 163 163 163 159 157 156 158 159 158 150 138 132 140 143 129 127 122 119 137 133 126 136 132 121 121 111 98 87 105 105 106 107 106 97 89 86 75 71 79 85 84 84
163 162 164 164 160 157 156 156 153 146 136 140 142 144 143 129 134 129 130 130 148 130 137 135 131 124 116 105 106 114 106 110 111 99 80 82 77 74 74 72 94 82 75
165 164 165 165 163 161 160 158 153 149 149 151 151 160 119 124 139 139 135 138 131 148 130 130 128 125 120 117 116 113 104 100 86 78 76 79 77 72 75 77 75 74 82
166 165 167 167 165 163 161 158 153 154 154 157 163 134 122 122 117 125 125 124 122 125 114 115 111 115 123 122 120 110 110 90 83 80 81 80 80 76 82 74 64 68 74
165 166 167 167 165 163 157 155 154 157 161 163 159 136 137 129 122 112 110 113 114 112 112 113 108 108 122 121 117 121 111 101 81 75 74 90 84 88 93 87 75 75 72
164 164 165 166 164 161 154 151 149 146 142 142 140 143 144 138 129 120 116 121 115 113 112 113 119 115 129 123 119 123 110 101 78 62 58 85 82 82 95 93 97 94 90
168 166 165 166 164 160 154 148 146 144 134 133 142 147 148 141 133 129 126 128 123 122 124 124 120 118 133 126 126 133 114 103 72 57 67 88 84 84 98 97 96 100 81
169 169 168 168 165 163 158 153 150 149 139 129 137 151 152 152 144 136 134 139 127 129 129 127 123 128 122 135 132 117 124 96 57 55 74 71 81 81 92 95 89 103 93
173 174 174 171 168 167 162 159 156 156 144 132 130 148 154 151 152 159 130 145 141 135 133 135 134 122 114 109 125 129 139 122 28 44 78 87 84 81 90 97 82 94 96
176 178 178 176 172 170 167 166 163 163 153 140 130 138 151 153 153 151 137 152 150 147 138 130 132 125 117 106 97 100 146 156 81 62 86 89 89 87 80 86 82 72 107
179 179 180 179 178 176 172 172 171 168 161 152 140 135 145 155 158 154 152 146 155 157 149 132 133 131 119 105 86 85 83 96 105 85 89 84 70 64 73 80 79 81 107
181 182 181 182 181 180 178 177 177 172 170 163 154 142 146 155 157 155 153 154 151 161 148 141 142 131 124 116 82 74 69 87 97 95 99 91 92 80 86 77 64 60 88
181 181 183 182 184 184 183 181 182 177 177 171 163 148 143 152 154 154 153 154 148 159 163 152 136 129 125 118 93 75 64 87 107 97 99 94 59 74 67 62 73 55 58
183 182 184 184 185 185 187 187 186 183 180 179 171 157 142 145 151 154 158 153 148 156 171 167 147 131 121 116 103 83 58 93 108 107 98 87 93 93 83 75 63 69 60
186 185 184 185 187 187 189 190 189 186 183 183 178 168 153 145 145 153 160 159 160 164 174 171 166 152 131 118 116 93 66 67 91 106 104 87 95 83 61 73 59 36 69
186 186 183 188 187 189 191 193 193 189 186 186 183 177 166 154 148 148 157 167 167 173 173 175 172 169 146 128 122 110 73 67 64 97 106 98 114 116 84 96 56 48 52
190 187 187 189 189 189 191 199 197 193 192 190 187 184 175 173 165 154 153 163 167 174 176 179 178 177 177 156 145 137 96 83 28 45 75 79 109 123 98 101 29 52 81
188 187 188 187 185 185 187 193 196 192 194 193 191 188 183 180 178 174 165 163 168 168 172 175 178 170 175 178 169 162 137 99 37 17 7 18 19 8 274 319 5 19 11
186 184 185 182 185 185 188 191 194 192 188 192 193 192 189 187 187 189 178 175 176 179 182 182 179 179 182 184 188 189 200 237 294 324 336 344 349 3 17 7 347 349 343
185 186 185 185 187 190 194 196 195 192 194 195 194 192 192 191 197 197 195 190 182 185 188 196 196 195 194 197 198 201 222 252 265 282 300 311 322 339 352 8 1 351 346
188 185 186 187 190 195 199 201 203 197 192 194 198 198 197 196 199 204 208 204 201 202 207 206 210 216 210 205 210 213 214 230 287 288 303 308 316 324 330 337 340 352 342
177 183 186 189 191 196 201 203 210 202 196 196 197 198 200 201 200 201 209 211 215 215 219 222 223 223 216 219 216 225 241 253 244 299 324 331 333 334 317 319 319 321 323
167 176 183 185 189 196 198 198 198 193 194 201 204 214 217 216 217 210 210 215 218 218 222 225 225 225 227 227 228 239 243 249 260 270 286 297 314 322 331 322 311 310 308
161 168 179 186 185 192 201 204 205 203 202 207 205 214 226 221 217 216 218 218 221 226 230 236 233 235 235 232 236 251 253 254 268 270 284 288 291 303 308 309 321 319 320
Height
1524 1528 1533 1537 1540 1543 1546 1548 1550 1552 1554 1557 1558 1560 1562 1563 1564 1566 1567 1569 1570 1572 1572 1573 1574 1574 1575 1576 1576 1577 1578 1578 1577 1578 1578 1578 1577 1577 1578 1577 1576 1577 1577
1521 1527 1533 1537 1540 1543 1546 1548 1550 1553 1555 1557 1559 1561 1563 1564 1566 1568 1570 1571 1572 1573 1574 1575 1576 1577 1578 1579 1579 1580 1581 1581 1581 1582 1582 1581 1581 1580 1580 1578 1579 1580 1580
1521 1527 1532 1537 1540 1544 1547 1549 1551 1554 1557 1558 1561 1562 1564 1566 1568 1569 1571 1572 1573 1575 1576 1577 1578 1579 1580 1581 1582 1583 1584 1584 1585 1585 1584 1584 1584 1583 1582 1581 1582 1582 1582
1521 1527 1532 1537 1541 1544 1547 1550 1552 1556 1558 1560 1562 1563 1565 1567 1569 1571 1572 1573 1574 1576 1577 1578 1579 1581 1583 1584 1586 1586 1587 1588 1588 1587 1586 1586 1587 1586 1585 1585 1584 1585 1585
1522 1527 1533 1537 1541 1544 1547 1550 1553 1556 1559 1561 1563 1565 1566 1568 1571 1571 1572 1573 1574 1577 1578 1580 1582 1583 1585 1587 1588 1589 1590 1591 1590 1590 1589 1589 1590 1589 1588 1588 1588 1588 1588
1522 1528 1533 1537 1541 1545 1548 1551 1554 1557 1560 1562 1564 1567 1569 1570 1572 1574 1574 1574 1576 1579 1581 1582 1584 1585 1587 1589 1591 1592 1593 1593 1592 1592 1592 1592 1593 1593 1593 1592 1593 1594 1593
1522 1528 1534 1538 1542 1546 1549 1552 1555 1558 1561 1563 1565 1568 1570 1572 1573 1576 1577 1578 1580 1582 1584 1585 1587 1588 1590 1592 1593 1595 1595 1595 1595 1596 1596 1596 1596 1596 1596 1597 1598 1598 1597
1523 1529 1535 1539 1543 1546 1550 1553 1556 1559 1562 1564 1566 1569 1571 1574 1576 1578 1580 1582 1583 1585 1587 1589 1590 1591 1593 1594 1596 1597 1598 1598 1598 1598 1598 1598 1599 1599 1599 1599 1599 1600 1600
1525 1530 1535 1540 1544 1548 1551 1554 1557 1560 1563 1565 1567 1569 1572 1576 1578 1579 1581 1584 1586 1588 1590 1592 1594 1595 1595 1597 1598 1599 1600 1600 1601 1601 1600 1601 1602 1602 1601 1602 1602 1602 1603
1526 1531 1535 1540 1544 1548 1551 1555 1558 1562 1564 1566 1568 1570 1573 1576 1579 1581 1582 1586 1588 1590 1592 1594 1596 1596 1598 1599 1600 1601 1602 1603 1603 1604 1604 1604 1604 1603 1603 1604 1603 1604 1604
1526 1531 1535 1539 1543 1547 1551 1555 1558 1562 1565 1567 1569 1571 1574 1577 1580 1582 1584 1587 1590 1592 1594 1596 1598 1598 1600 1602 1603 1604 1605 1605 1605 1606 1606 1607 1606 1606 1605 1605 1605 1605 1606
1522 1528 1533 1538 1542 1547 1551 1555 1558 1562 1565 1568 1570 1572 1575 1578 1581 1583 1586 1589 1591 1594 1596 1597 1599 1601 1603 1604 1605 1606 1605 1606 1607 1608 1609 1609 1609 1608 1608 1607 1607 1607 1608
1518 1526 1531 1536 1541 1546 1550 1554 1557 1561 1565 1569 1571 1573 1576 1578 1580 1583 1586 1588 1592 1595 1597 1599 1601 1604 1605 1606 1607 1607 1607 1607 1608 1609 1611 1612 1611 1611 1610 1609 1609 1608 1609
1516 1522 1529 1534 1540 1545 1549 1553 1557 1561 1565 1569 1572 1574 1576 1578 1581 1583 1586 1589 1592 1595 1598 1600 1603 1605 1607 1608 1609 1609 1609 1609 1610 1611 1613 1614 1614 1614 1613 1613 1613 1612 1611
1515 1521 1526 1532 1538 1543 1548 1552 1556 1561 1565 1569 1572 1575 1577 1579 1582 1584 1587 1589 1592 1595 1599 1601 1604 1606 1608 1609 1611 1611 1611 1611 1612 1613 1614 1615 1615 1615 1615 1615 1615 1614 1613
1513 1519 1524 1530 1535 1542 1547 1552 1556 1560 1565 1569 1573 1576 1578 1581 1583 1585 1587 1590 1592 1596 1599 1602 1605 1607 1609 1611 1612 1613 1613 1613 1614 1615 1616 1617 1617 1617 1618 1618 1617 1616 1616
1510 1516 1522 1528 1534 1540 1547 1551 1555 1559 1564 1568 1573 1576 1579 1581 1584 1586 1588 1591 1594 1596 1599 1602 1605 1608 1610 1612 1613 1614 1614 1615 1615 1616 1617 1618 1619 1619 1619 1619 1619 1618 1617
1508 1515 1521 1527 1533 1539 1545 1550 1554 1558 1563 1567 1572 1575 1579 1582 1584 1586 1589 1591 1594 1596 1599 1602 1605 1608 1611 1612 1614 1615 1616 1616 1617 1617 1618 1619 1620 1620 1620 1620 1620 1620 1619
1507 1513 1520 1526 1532 1537 1543 1549 1553 1558 1561 1566 1570 1574 1578 1582 1584 1587 1589 1591 1594 1596 1599 1602 1605 1608 1611 1613 1614 1615 1617 1618 1618 1618 1619 1619 1620 1621 1620 1620 1620 1620 1620
1507 1513 1518 1524 1530 1536 1541 1547 1552 1555 1559 1564 1568 1572 1577 1580 1584 1586 1589 1591 1594 1596 1599 1602 1605 1608 1610 1613 1614 1616 1617 1618 1619 1619 1620 1620 1620 1620 1620 1620 1620 1620 1620
1504 1511 1515 1521 1527 1532 1537 1542 1548 1552 1556 1561 1566 1571 1575 1579 1582 1585 1588 1591 1594 1596 1598 1602 1604 1607 1609 1612 1614 1617 1618 1618 1619 1620 1620 1621 1621 1621 1621 1621 1621 1620 1620
1501 1507 1513 1519 1524 1530 1535 1539 1544 1550 1555 1559 1564 1568 1572 1576 1580 1583 1587 1590 1593 1595 1598 1601 1603 1605 1608 1610 1612 1615 1618 1619 1619 1619 1620 1621 1621 1621 1622 1622 1621 1621 1621
1497 1503 1509 1516 1521 1527 1533 1538 1542 1547 1552 1556 1560 1564 1568 1573 1578 1581 1585 1588 1591 1594 1597 1599 1601 1604 1606 1608 1611 1614 1615 1617 1617 1619 1620 1620 1621 1621 1621 1621 1621 1621 1621
1494 1500 1506 1512 1518 1524 1529 1535 1539 1544 1548 1552 1557 1562 1566 1570 1575 1579 1582 1586 1589 1592 1595 1597 1600 1602 1605 1607 1609 1611 1613 1615 1616 1618 1619 1619 1620 1621 1620 1620 1621 1620 1620
1491 1497 1504 1509 1515 1522 1527 1532 1537 1541 1546 1551 1555 1560 1564 1567 1571 1575 1578 1582 1585 1588 1592 1594 1597 1599 1602 1604 1606 1608 1610 1613 1614 1616 1617 1618 1619 1620 1619 1619 1619 1619 1618
1490 1495 1502 1506 1512 1518 1523 1529 1534 1538 1544 1548 1552 1557 1560 1564 1567 1571 1575 1578 1582 1585 1588 1591 1594 1596 1599 1601 1604 1606 1608 1609 1611 1613 1614 1615 1616 1617 1618 1618 1617 1617 1616